This demonstration page uses our WeatherBlox Daily Observations layout. Learn more.

Left ArrowRight Arrow

44.8408, -93.29828

Hourly Observations for June 21, 2015

Temp ( °F °C ) Dew Point ( °F °C ) Humidity (%) Winds ( mph kmh ) Pressure ( in mb ) Visibility ( mi km ) Precip ( " mm )
12:53 am 00:53 Clear 69 20.6 62 16.7 78 78 WNW 8 13 29.83 1010 10 16 0.00 0.00
1:53 am 01:53 Clear 68 20 61 16.1 78 78 NNW 8 13 29.84 1010 10 16 0.00 0.00
2:53 am 02:53 Clear 66 18.9 61 16.1 84 84 Calm 29.85 1011 10 16 0.00 0.00
3:53 am 03:53 Mostly Clear 65 18.3 60 15.6 84 84 Calm 29.84 1011 10 16 0.00 0.00
4:53 am 04:53 Partly Cloudy 66 18.9 61 16.1 84 84 Calm 29.83 1010 10 16 0.00 0.00
5:53 am 05:53 Mostly Sunny 62 16.7 60 15.6 93 93 WNW 5 7 29.88 1012 9 14 0.00 0.00
6:53 am 06:53 Mostly Sunny 67 19.4 62 16.7 84 84 W 6 9 29.90 1012 10 16 0.00 0.00
7:53 am 07:53 Partly Cloudy 70 21.1 62 16.7 76 76 W 3 6 29.90 1013 10 16 0.00 0.00
8:53 am 08:53 Partly Cloudy 74 23.3 63 17.2 69 69 WNW 6 9 29.91 1013 10 16 0.00 0.00
9:53 am 09:53 Mostly Cloudy 76 24.4 63 17.2 64 64 W 10 17 29.91 1013 10 16 0.00 0.00
10:53 am 10:53 Mostly Cloudy 78 25.6 61 16.1 56 56 W 7 11 29.91 1013 10 16 0.00 0.00
11:53 am 11:53 Mostly Cloudy 79 26.1 61 16.1 54 54 Calm 29.91 1013 10 16 0.00 0.00
12:53 pm 12:53 Mostly Cloudy 81 27.2 57 13.9 44 44 WSW 6 9 29.90 1013 10 16 0.00 0.00
1:53 pm 13:53 Partly Cloudy 84 28.9 55 12.8 37 37 VRB 7 11 29.88 1012 10 16 0.00 0.00
2:53 pm 14:53 Partly Cloudy 85 29.4 54 12.2 35 35 NW 10 17 29.87 1012 10 16 0.00 0.00
3:53 pm 15:53 Partly Cloudy 85 29.4 54 12.2 35 35 W 13 20 29.86 1011 10 16 0.00 0.00
4:53 pm 16:53 Mostly Cloudy 86 30 55 12.8 35 35 W 8 13 29.88 1012 10 16 0.00 0.00
5:53 pm 17:53 Mostly Cloudy 86 30 55 12.8 35 35 Calm 29.88 1012 10 16 0.00 0.00
6:53 pm 18:53 Mostly Cloudy 83 28.3 52 11.1 34 34 W 7 11 29.87 1011 10 16 0.00 0.00
7:53 pm 19:53 Mostly Cloudy 84 28.9 51 10.6 32 32 SSW 3 6 29.85 1011 10 16 0.00 0.00
8:53 pm 20:53 Mostly Cloudy 82 27.8 53 11.7 37 37 S 7 11 29.85 1011 10 16 0.00 0.00
9:53 pm 21:53 Mostly Cloudy 78 25.6 56 13.3 47 47 SSE 6 9 29.85 1011 10 16 0.00 0.00
10:53 pm 22:53 Mostly Cloudy 75 23.9 58 14.4 55 55 ESE 5 7 29.84 1011 10 16 0.00 0.00
11:53 pm 23:53 Mostly Cloudy 73 22.8 58 14.4 59 59 SE 7 11 29.84 1011 10 16 0.00 0.00

Powered by AerisWeather